Airfield :
LOGIN :

Register | Disclaimer

   EN    FR    IT 

 










Legend :    VFR   Marginal VFR   IFR   Intensive IFR   Very Intensive IFR
Visi :
Ceiling :
>= 8 km
>= 3000ft
5 to 8 km
1000 to 3000 ft
1500m to 5 km
500 to 1000 ft
800 to 1500m
200 to 500 ft
< 800m
< 200 ft
Symbols :   Thunderstorms  Fog  Heavy snow  Heavy precipitations  Wind > 20 kt
SIGMETs :     Misc.  Thunderstorms  Icing  Turbulence  Mountain Waves  Volcanic Ashes







- Airport Elevation : 28 ft
- IATA code : SOZ
- Download approach charts


LFKS - Solenzara

CURRENT METAR :
  • 250830Z AUTO 10006KT 060V140 9999 NCD 20/15 Q1018

EXPIRED METARs :
  • 250800Z AUTO 05003KT 350V110 CAVOK 20/15 Q1018
  • 250730Z AUTO 10004KT 050V150 CAVOK 20/15 Q1018
  • 250700Z AUTO 04003KT 360V090 CAVOK 20/15 Q1017
  • 250630Z AUTO VRB02KT CAVOK 19/12 Q1017
  • 250600Z AUTO VRB03KT CAVOK 17/12 Q1017

TAF TAF LFKS
Valid from the 25 at 09:00 until the 26 at 09:00 UTC


250800Z 2509/2609 12005KT CAVOK
No reported NOTAMs for that airfield.



MET'MAP, your aeronautical weather chart ! - Copyright ORBIFLY December 2007 - Disclaimer

ORBIFLY MET'MAP TEAM :

Programming & Development : Alexandra Zaïnal
Concept & Development : Baudouin d'Aumeries
Co-Development & Prog : Marc-Olivier Méhu
Technical & hardware support : Manuel Goepfert

Contact : metmap@orbifly.com




SOURCES & CREDITS :

   NOAA